Athens, TX

11:48 PM CST on February 24, 2018 (GMT -0600)
Athens

Weather History for KF44 - December, 2012

Change the Weather History Date:

Thursday, December 13, 2012

  Actual Average (KTYR) Record (KTYR)
Temperature  
Mean Temperature 45 °F -  
Max Temperature 62 °F 57 °F 80 °F (1921)
Min Temperature 28 °F 37 °F 15 °F (1962)
Degree Days  
Heating Degree Days 20    
Moisture  
Dew Point 24 °F    
Average Humidity 40    
Maximum Humidity 76    
Minimum Humidity 19    
Precipitation  
Precipitation 0.00 in - - ()
Sea Level Pressure  
Sea Level Pressure 30.26 in    
Wind  
Wind Speed 4 mph (SSE)    
Max Wind Speed 12 mph    
Max Gust Speed -    
Visibility 10 miles    
Events      
Averages and records for this station are not official NWS values.
T = Trace of Precipitation, MM = Missing Value Source: NWS Daily Summary

Daily Weather History Graph

Daily Weather History Graph

Search for Another Location

Airport or City:

Trip Planner

Search our weather history database for the weather conditions in past years. The results will help you decide how hot, cold, wet, or windy it might be!

Date:

Astronomy

Dec. 13, 2012 Rise Set
Actual Time 7:15 AM CST 5:19 PM CST
Civil Twilight 6:48 AM CST 5:46 PM CST
Nautical Twilight 6:18 AM CST 6:17 PM CST
Astronomical Twilight 5:48 AM CST 6:47 PM CST
Moon 7:26 AM CST (12/13) 6:01 PM CST (12/13)
Length of Visible Light 10h 58m
Length of Day
10h 03m
New Moon, 0% of the Moon is Illuminated
Dec 13
New Moon
Dec 19
First Quarter
Dec 28
Full
Jan 4
Last Quarter
Jan 11
New

Hourly Weather History & Observations

Time (CST) Temp. Windchill Dew Point Humidity Pressure Visibility Wind Dir Wind Speed Gust Speed Precip Events Conditions
7:35 AM 28.9 °F - 22.3 °F 76% 30.32 in 10.0 mi Calm Calm - N/A   Clear
7:55 AM 29.3 °F 25.6 °F 22.6 °F 76% 30.32 in 10.0 mi ESE 3.5 mph - N/A   Clear
8:15 AM 32.2 °F - 24.3 °F 73% 30.32 in 10.0 mi Calm Calm - N/A   Clear
8:35 AM 36.7 °F - 25.3 °F 64% 30.32 in 10.0 mi Calm Calm - N/A   Clear
8:55 AM 39.9 °F 37.8 °F 25.5 °F 56% 30.33 in 10.0 mi SSE 3.5 mph - N/A   Clear
9:15 AM 42.4 °F 38.8 °F 25.2 °F 50% 30.34 in 10.0 mi SSE 5.8 mph - N/A   Clear
9:35 AM 44.8 °F 42.4 °F 24.8 °F 46% 30.35 in 10.0 mi South 4.6 mph - N/A   Clear
9:55 AM 46.8 °F - 25.2 °F 43% 30.35 in 10.0 mi South 6.9 mph - N/A   Clear
10:15 AM 48.2 °F - 25.5 °F 41% 30.34 in 10.0 mi South 5.8 mph - N/A   Clear
10:35 AM 50.2 °F - 25.3 °F 38% 30.34 in 10.0 mi South 3.5 mph - N/A   Clear
10:55 AM 52.0 °F - 24.3 °F 34% 30.34 in 10.0 mi SSE 3.5 mph - N/A   Clear
11:15 AM 53.1 °F - 23.2 °F 31% 30.33 in 10.0 mi South 6.9 mph - N/A   Clear
11:35 AM 54.5 °F - 22.6 °F 29% 30.32 in 10.0 mi South 8.1 mph - N/A   Clear
11:55 AM 55.6 °F - 21.9 °F 27% 30.32 in 10.0 mi SSW 6.9 mph - N/A   Clear
12:15 PM 56.5 °F - 21.6 °F 26% 30.30 in 10.0 mi South 3.5 mph - N/A   Clear
12:35 PM 57.6 °F - 22.1 °F 25% 30.29 in 10.0 mi SSE 4.6 mph - N/A   Clear
12:55 PM 58.6 °F - 21.6 °F 24% 30.28 in 10.0 mi SSE 4.6 mph - N/A   Clear
1:15 PM 59.5 °F - 21.6 °F 23% 30.27 in 10.0 mi SSE 3.5 mph - N/A   Clear
1:35 PM 60.4 °F - 21.7 °F 23% 30.25 in 10.0 mi SSE 5.8 mph - N/A   Clear
1:55 PM 61.2 °F - 21.6 °F 22% 30.24 in 10.0 mi South 6.9 mph - N/A   Clear
2:15 PM 61.7 °F - 21.2 °F 21% 30.23 in 10.0 mi SE 8.1 mph - N/A   Clear
2:35 PM 61.9 °F - 20.8 °F 21% 30.22 in 10.0 mi SSE 11.5 mph - N/A   Clear
2:55 PM 62.1 °F - 20.5 °F 20% 30.21 in 10.0 mi South 8.1 mph - N/A   Clear
3:15 PM 62.6 °F - 19.9 °F 19% 30.21 in 10.0 mi SSE 6.9 mph - N/A   Clear
3:35 PM 62.6 °F - 19.6 °F 19% 30.20 in 10.0 mi SSE 5.8 mph - N/A   Clear
3:55 PM 62.2 °F - 19.4 °F 19% 30.20 in 10.0 mi South 11.5 mph - N/A   Clear
5:15 PM 58.1 °F - 21.7 °F 25% 30.20 in 10.0 mi SSE 3.5 mph - N/A   Clear
7:15 PM 45.7 °F - 24.3 °F 43% 30.22 in 10.0 mi Calm Calm - N/A   Clear
7:55 PM 40.8 °F 36.9 °F 25.2 °F 54% 30.22 in 10.0 mi ESE 5.8 mph - N/A   Clear
8:15 PM 41.4 °F 39.4 °F 25.0 °F 52% 30.22 in 10.0 mi SE 3.5 mph - N/A   Clear
8:35 PM 41.5 °F - 25.3 °F 53% 30.22 in 10.0 mi Calm Calm - N/A   Clear
8:55 PM 44.1 °F - 25.7 °F 49% 30.22 in 10.0 mi Calm Calm - N/A   Clear
9:15 PM 43.7 °F - 25.9 °F 50% 30.22 in 10.0 mi Calm Calm - N/A   Clear
9:55 PM 45.0 °F 42.6 °F 26.2 °F 48% 30.21 in 10.0 mi ESE 4.6 mph - N/A   Clear
10:15 PM 44.8 °F 43.3 °F 26.2 °F 48% 30.22 in 10.0 mi SE 3.5 mph - N/A   Clear
10:35 PM 44.8 °F 43.3 °F 26.2 °F 48% 30.21 in 10.0 mi ESE 3.5 mph - N/A   Clear
10:55 PM 44.8 °F 42.4 °F 26.6 °F 49% 30.20 in 10.0 mi SE 4.6 mph - N/A   Clear
11:15 PM 45.9 °F - 26.4 °F 47% 30.21 in 10.0 mi Calm Calm - N/A   Clear
11:35 PM 45.1 °F - 26.8 °F 49% 30.20 in 10.0 mi Calm Calm - N/A   Clear
11:55 PM 44.4 °F - 26.8 °F 50% 30.21 in 10.0 mi Calm Calm - N/A   Clear